Regional Weather Roundup
Issued by NWS Albany, NY

Home | Current Version | Previous Version | Text Only | Print | Product List | Glossary On
Versions: 1 2 3 4 5 6 7 8 9 10 11 12 13 14 15 16 17 18 19 20 21 22 23 24 25 26 27 28 29 30 31 32 33 34 35 36 37 38 39 40 41 42 43 44 45 46 47 48 49 50
780
ASUS41 KALY 202310
RWRALY

NEW YORK STATE HOURLY WEATHER ROUNDUP
NATIONAL WEATHER SERVICE ALBANY NY
600 PM EST MON FEB 20 2017

NOTE: "FAIR" INDICATES FEW OR NO CLOUDS BELOW 12,000 FEET WITH NO
SIGNIFICANT WEATHER AND/OR NO OBSTRUCTIONS TO VISIBILITY.

NYZ032-033-038>043-046>054-057>066-NYZ062>081-082-084-210000-
EAST


CITY           SKY/WX    TMP DP  RH WIND       PRES   REMARKS
ALBANY         PTCLDY    37  13  37 NE9       30.35R WCI  30
GLENS FALLS    CLEAR     35  14  42 NE9       30.36R WCI  28
POUGHKEEPSIE   CLEAR     39  15  37 N8        30.29R WCI  33
NEWBURGH       CLEAR     41  16  36 E9        30.28R
MONTGOMERY     CLEAR     41  17  38 NE6       30.27R
WHITE PLAINS   CLEAR     44   9  23 N12       30.26R
ISLIP          PTCLDY    44  18  35 N12       30.25R
NEW YORK CITY  PTCLDY    50  15  24 N16       30.25R
CENTRAL PARK   CLEAR     49  11  21 NE15G23   30.28R
$$

NYZ005>009-017-018-044>046-055-056-210000-
CENTRAL


CITY           SKY/WX    TMP DP  RH WIND       PRES   REMARKS
FULTON         CLEAR     30  15  53 N6        30.38R WCI  24
SYRACUSE       PTCLDY    32  16  51 NW9       30.38R WCI  24
ROME           CLEAR     33  20  58 W7        30.37R WCI  27
ELMIRA         CLEAR     37  21  52 NE8       30.31S WCI  31
BINGHAMTON     CLEAR     34  16  47 N9        30.28R WCI  27
MONTICELLO     CLEAR     37  10  32 N9        30.27R WCI  31
$$

NYZ026>034-041>043-087-210000-
NORTH


CITY           SKY/WX    TMP DP  RH WIND       PRES   REMARKS
WATERTOWN      CLEAR     33  12  41 N5        30.39R WCI  29
FORT DRUM      NOT AVBL
OGDENSBURG     FAIR      29  14  52 CALM      30.41S
MASSENA        CLEAR     30  10  43 CALM      30.42R
SARANAC LAKE   CLEAR     28   4  35 N5        30.29R WCI  23
PLATTSBURGH    CLEAR     28  16  60 CALM      30.39R
$$

NYZ001>004-010>016-019>021-085-210000-
WEST


CITY           SKY/WX    TMP DP  RH WIND       PRES   REMARKS
NIAGARA FALLS  CLEAR     36  21  54 E8        30.32S WCI  30
BUFFALO        PTCLDY    37  21  52 NE9       30.31F WCI  30
DUNKIRK        PTCLDY    40  22  48 NE10      30.29S WCI  33
JAMESTOWN        N/A     43  25  49 NE6       30.24F
WELLSVILLE     CLEAR     42  10  27 E3        30.27S
ROCHESTER      PTCLDY    33  17  51 E9        30.37R WCI  25
PENN YAN       CLEAR     33  17  51 VRB3      30.34R
$$

             KEY
       WCI = WIND CHILL INDEX
       VSB = VISIBILITY
       HX  = HEAT INDEX
$$




USA.gov is the U.S. government's official web portal to all federal, state and local government web resources and services.